Location: Devore Heights
(34.2372°N, 117.4156°W)
Time: 08:14:17
(UTC+00:00)

Altair - Pass Details

Date: 21 September 2024
Orbit: 1501 x 1682 km, 47.2° (Epoch: 07 October)

Event Time Altitude Azimuth Distance (km) Brightness Sun altitude
Rises 08:59:23 0° 247° (WSW) 4,789 - -50.9°
Reaches altitude 10° 09:02:30 10° 251° (WSW) 3,829 - -50.6°
Maximum altitude 09:12:14 63° 332° (NNW) 1,807 - -49.5°
Exits shadow 09:15:50 43° 33° (NNE) 2,215 8.4 -49.0°
Drops below altitude 10° 09:22:18 10° 53° (NE) 3,942 10.1 -48.2°
Sets 09:25:34 0° 56° (ENE) 4,937 10.8 -47.8°
